Regional Weather Roundup
Issued by NWS

Home | Current Version | Previous Version | Graphics & Text | Print | Product List | Glossary Off
Versions: 1 2 3 4 5 6 7 8 9 10 11 12 13 14 15 16 17 18 19 20 21 22 23 24 25 26 27 28 29 30 31 32 33 34 35 36 37 38 39 40 41 42 43 44 45 46 47 48 49 50

000
ASUS43 KMKX 281900
RWRWI

WISCONSIN REGIONAL WEATHER ROUNDUP
NATIONAL WEATHER SERVICE MILWAUKEE/SULLIVAN WI
200 PM CDT THU AUG 28 2014

NOTE: "FAIR" INDICATES FEW OR NO CLOUDS BELOW 12,000 FEET WITH NO
SIGNIFICANT WEATHER AND/OR OBSTRUCTIONS TO VISIBILITY.

WIZ001-002-006>008-014>016-023>028-282000-
NORTHWEST WISCONSIN

CITY           SKY/WX    TMP DP  RH WIND       PRES   REMARKS
SUPERIOR ARPT  MOSUNNY   67  58  71 NE9       30.06F
ASHLAND        MOSUNNY   75  54  47 CALM      30.08F
HAYWARD        MOSUNNY   71  54  54 S7        30.07F
SIREN          PTSUNNY   73  57  58 S7        30.05F
RICE LAKE      CLOUDY    71  57  60 SE10      30.08F
LADYSMITH      PTSUNNY   72  56  57 S7        30.11F
EAU CLAIRE     NOT AVBL
MENOMONIE      CLOUDY    73  62  68 E7        30.05F
NEW RICHMOND   CLOUDY    71  60  68 SE8       30.05F
OSCEOLA        PTSUNNY   72  61  69 SE9       30.06F
$$

WIZ003>005-009-010-017-018-282000-
NORTH CENTRAL WISCONSIN

CITY           SKY/WX    TMP DP  RH WIND       PRES   REMARKS
WOODRUFF       SUNNY     72  51  47 CALM      30.12F
RHINELANDER    PTSUNNY   69  54  58 S5        30.13F
EAGLE RIVER    SUNNY     69  45  43 E6        30.12F
LAND O LAKES   SUNNY     70  45  40 CALM      30.13F
PHILLIPS       PTSUNNY   71  55  57 S3        30.10F
TOMAHAWK       PTSUNNY   69  55  61 CALM      30.13F
MEDFORD        CLOUDY    67  59  74 SE6       30.12F
MERRILL        PTSUNNY   68  57  68 S7        30.12F
$$

WIZ029-030-035-036-043>047-282000-
CENTRAL WISCONSIN

CITY           SKY/WX    TMP DP  RH WIND       PRES   REMARKS
WAUSAU         PTSUNNY   68  59  73 E5        30.11F
MOSINEE        NOT AVBL
MARSHFIELD     CLOUDY    71  61  70 E7        30.10F
STEVENS POINT  CLOUDY    69  59  70 CALM      30.12F
WAUPACA        PTSUNNY   73  60  64 E6        30.12F
WAUTOMA        NOT AVBL
WISC RAPIDS    PTSUNNY   74  60  61 S8        30.10F
CAMP DOUGLAS   NOT AVBL
$$

WIZ011>013-019>022-031-037>040-048>050-282000-
NORTHEAST WISCONSIN

CITY           SKY/WX    TMP DP  RH WIND       PRES   REMARKS
ANTIGO         PTSUNNY   66  57  72 S5        30.15F
STURGEON BAY   CLOUDY    64  54  68 SE12      30.16F
GREEN BAY      CLOUDY    70  60  70 SE7       30.13F
MANITOWOC      NOT AVBL
APPLETON       NOT AVBL
CLINTONVILLE   CLOUDY    70  59  68 CALM      30.13F
OSHKOSH        CLOUDY    72  60  66 SE6       30.12F
$$

WIZ032>034-041-042-053>061-282000-
SOUTHWEST WISCONSIN

CITY           SKY/WX    TMP DP  RH WIND       PRES   REMARKS
LA CROSSE      LGT RAIN  71  64  78 SE7       30.05F
SPARTA         CLOUDY    72  60  66 SE5       30.09S
VIROQUA        CLOUDY    69  64  84 SE8       30.09F
BOSCOBEL       CLOUDY    74  61  63 E7        30.06F
PRAIRIE DU CHI LGT RAIN  69  63  80 E6        30.05F
PLATTEVILLE    FAIR      71  62  73 SE8       30.09F
$$

WIZ056-057-062-063-064-067-068-282000-
SOUTH CENTRAL WISCONSIN

CITY           SKY/WX    TMP DP  RH WIND       PRES   REMARKS
BARABOO/DELLS  CLOUDY    73  57  56 SE7       30.10F
LONE ROCK      NOT AVBL
WATERTOWN      PTSUNNY   73  60  63 SE6       30.11F
MADISON        CLOUDY    74  60  61 SE9       30.10F
MIDDLETON      CLOUDY    75  60  58 SE8       30.10F
MONROE         CLOUDY    73  61  64 SE8       30.10F
JANESVILLE     MOSUNNY   79  57  47 SE10      30.10F HX  80
$$

WIZ051-052-058>065-066-070>072-282000-
SOUTHEAST WISCONSIN

CITY           SKY/WX    TMP DP  RH WIND       PRES   REMARKS
MILWAUKEE      PTSUNNY   70  54  56 E10       30.14F
WAUKESHA       MOSUNNY   72  54  53 SE9       30.14F
MILWAUKEE/TIMM SUNNY     70  48  46 E10G16    30.15F
RACINE         SUNNY     71  56  58 E9        30.15F
BURLINGTON     SUNNY     71  54  53 E8        30.13S
KENOSHA        SUNNY     72  53  51 E8G21     30.13F
FOND DU LAC    CLOUDY    71  58  63 SE10      30.12F
SHEBOYGAN      MOSUNNY   70  54  56 SE9       30.15F
WEST BEND      PTSUNNY   70  52  52 SE9       30.15S
JUNEAU         CLOUDY    72  58  62 E9        30.13F
$$

LSZ147-162-282000-
LAKE SUPERIOR

STATION/POSITION TIME  TEMP    WIND        PRES    WAVE
                       AIR SEA DIR/SP/G            HT/PER
                 (UTC) (F)     (DEG/KT/KT) (MB)    (FT/S)
W MID LAKE BUOY  1750   58 57  150/  4/  4 1019.9F   1
DEVILS ISLAND    1800   62      60/  7/  7 1019.5F
PORT WING        1800   65      20/  9/ 10 1018.6F
SAXON HARBOR     1800   64      30/  5/  6 1019.3F
$$

LMZ867-665-643>646-282000-
LAKE MICHIGAN

STATION/POSITION TIME  TEMP    WIND        PRES    WAVE
                       AIR SEA DIR/SP/G            HT/PER
                 (UTC) (F)     (DEG/KT/KT) (MB)    (FT/S)
N MID LAKE BUOY  1750   62 66  170/  6/  8 1021.9F   0
NORTHPORT PIER   1800   64     150/ 10/ 13 1021.3F
SISTER BAY       1726   68     170/ 11/ 15   N/A
KEWAUNEE LAKESHO 1800   65     160/ 12/ 14 1020.5F
SHEBOYGAN LAKESH 1800   65 69  150/ 11/ 12 1021.5F
ATWATER BUOY     1800   67     120/ 10/ 14 1021.9F
MILWAUKEE LAKESH 1800   67     130/ 10/ 12   N/A
S MID LAKE BUOY  1750   65 69   90/ 10/ 12 1020.8F
KENOSHA   LAKESH 1800   69     110/  6/  9 1020.3F
$$

TC  - TEMPERATURE IN CELSIUS
VSB - VISIBILITY IN STATUTE MILES
WCI - WIND CHILL INDEX
HX  - HEAT INDEX




USA.gov is the U.S. government's official web portal to all federal, state and local government web resources and services.